Find Starlink 32800

NORAD ID: 62743 Int'l Des: 2025-014 Owner: SPXS Country: US Constellation: starlink operational
LEOCIRCULAR

当前视图

正在加载3D地球...

About Starlink 32800

Starlink 32800 (NORAD 62743) is a starlink constellation satellite (v2 mini) launched Jan 21, 2025 by SPXS of US. It operates in LEO, CIRCULAR orbit with a mass of 730.00 kg.

即将过境

Passes for default location (London). Set your location on the main map for personalized predictions.

高度历史

Loading altitude history...

两行轨道根数

1 62743U 25014J 26264.00647362 .00003744 00000-0 14559-3 0 9997
2 62743 42.9997 138.6834 0001425 273.6768 86.3921 15.27562410 93046
Epoch: Sep 21, 2026 • Age: 12 hours

当前状态

高度 485.2 km
远地点 / 近地点 N/A
速度 7.63 km/s
星下点 33.68°N, 94.98°E
发射日期 Jan 21, 2025
运行时间 1.6 years
类型 internet

技术详情

分类 Payload
质量 730.00 kg
干质量 700.00 kg
长度 0.30 m
跨度 29.00 m
形状 ? Box + pan
制造商 SPXS
平台类型 Starlink V2M
阶段状态 In Orbit
所有者/国家 SPXS/US

Most Searched